RS8S (SXC3-2111 RESHUC*) (53382 NORAD) Tracking and Keplerian Element Data

This shows tracking and keplerian element data for the satellite.

Feedback or suggestion? Click here.




ElementValue
Catalog53382
NameRS8S (SXC3-2111 RESHUC*)
Epoch Orbit1584
Epoch Day325.20778344
Epoch Year2022
RAAN226.0494
Inclination97.4274
Eccentricity0.000612
Argument of Perigee82.8226
Mean Anonmoly68.6279
Mean Motion15.26996049
Decay Rate8.212E-05
L11 53382U 22096N 22325.20778344 .00008212 00000+0 31252-3 0 9997
L22 53382 97.4274 226.0494 0006120 82.8226 68.6279 15.26996049 15847



Live tracking and technical data element details for RS8S (SXC3-2111 RESHUC*) (NORAD 53382). RS8S (SXC3-2111 RESHUC*) can be tracked NOW for your location showing map with azimuth and elevation plus other details from your city location.







IsCatalogInMostPopularTable: catalog: 53382, numindb: 4
Update: records affected: 1



GetName: 53382 RS8S (SXC3-2111 RESHUC*)

Hit Count: updated at: Thu, 08 Dec 2022 20:17:09 GMT